CW8846 Weather Reports


time (UTC)temp
C
wind
direction
speed
KPH
gust
KPH
rain 1hr
cm
rain 24hr
cm
rain mn
cm
humidity
%
barometer
mb
20260502224637 19 166 11.3 16.1 0.00 0.00 0.00 13 1016.9
20260502223626 19 150 17.7 29.0 0.00 0.00 0.00 12 1017.1
20260502222617 20 195 17.7 25.7 0.00 0.00 0.00 11 1017.2
20260502221625 20 186 11.3 25.7 0.00 0.00 0.00 12 1017.3
20260502220617 20 161 17.7 32.2 0.00 0.00 0.00 13 1017.5
20260502215615 20 198 6.4 22.5 0.00 0.00 0.00 13 1017.5
20260502214621 20 191 11.3 20.9 0.00 0.00 0.00 12 1017.8
20260502213630 20 259 16.1 24.1 0.00 0.00 0.00 12 1018.0
20260502212617 20 200 14.5 24.1 0.00 0.00 0.00 12 1018.1
20260502211627 19 258 9.7 22.5 0.00 0.00 0.00 13 1018.2
20260502210614 20 206 17.7 30.6 0.00 0.00 0.00 13 1018.4
20260502205653 20 190 16.1 30.6 0.00 0.00 0.00 13 1018.5
20260502204623 19 159 12.9 24.1 0.00 0.00 0.00 13 1018.6
20260502203617 19 202 12.9 25.7 0.00 0.00 0.00 14 1018.7
20260502202624 19 163 11.3 29.0 0.00 0.00 0.00 14 1018.9
20260502201632 19 234 6.4 20.9 0.00 0.00 0.00 13 1018.9
20260502200621 19 203 12.9 25.7 0.00 0.00 0.00 14 1018.9
20260502195625 18 194 16.1 24.1 0.00 0.00 0.00 15 1019.1
20260502194652 18 178 12.9 29.0 0.00 0.00 0.00 15 1019.1
20260502193616 18 177 11.3 30.6 0.00 0.00 0.00 15 1019.3
20260502192624 18 224 16.1 25.7 0.00 0.00 0.00 17 1019.3
20260502191616 18 229 12.9 25.7 0.00 0.00 0.00 16 1019.5
20260502190624 18 232 17.7 25.7 0.00 0.00 0.00 16 1019.6
20260502185618 18 226 14.5 32.2 0.00 0.00 0.00 16 1019.6
20260502184624 18 216 16.1 25.7 0.00 0.00 0.00 16 1019.7
20260502183616 18 232 12.9 24.1 0.00 0.00 0.00 17 1019.8
20260502182625 18 223 14.5 27.4 0.00 0.00 0.00 16 1019.9
20260502181614 18 198 11.3 24.1 0.00 0.00 0.00 17 1019.9
20260502180614 18 198 12.9 22.5 0.00 0.00 0.00 17 1019.9
20260502163627 16 236 6.4 20.9 0.00 0.00 0.00 22 1020.1
20260502162618 16 181 8.0 14.5 0.00 0.00 0.00 22 1020.1
20260502161646 15 215 6.4 14.5 0.00 0.00 0.00 22 1020.1
20260502160612 15 254 4.8 12.9 0.00 0.00 0.00 21 1020.1
20260502151624 15 173 6.4 9.7 0.00 0.00 0.00 23 1020.1
20260502150617 15 185 6.4 9.7 0.00 0.00 0.00 23 1020.1
20260502130612 6 34 8.0 9.7 0.00 0.00 0.00 38 1019.5
20260502123627 3 18 8.0 12.9 0.00 0.00 0.00 43 1019.4
20260502122619 3 5 9.7 11.3 0.00 0.00 0.00 42 1019.4
20260502121630 6 19 6.4 12.9 0.00 0.00 0.00 37 1019.3
20260502120621 5 13 9.7 12.9 0.00 0.00 0.00 38 1019.3
20260502115617 5 18 9.7 12.9 0.00 0.00 0.00 39 1019.3
20260502114630 5 14 8.0 9.7 0.00 0.00 0.00 39 1019.3
20260502113618 4 13 8.0 11.3 0.00 0.00 0.00 39 1019.4
20260502112629 3 13 8.0 9.7 0.00 0.00 0.00 40 1019.4
20260502111637 5 12 9.7 12.9 0.00 0.00 0.00 37 1019.4
20260502110628 6 15 6.4 9.7 0.00 0.00 0.00 36 1019.4
20260502105625 5 20 8.0 14.5 0.00 0.00 0.00 39 1019.5
20260502104630 5 5 8.0 12.9 0.00 0.00 0.00 38 1019.5
20260502103615 5 11 8.0 14.5 0.00 0.00 0.00 38 1019.4
20260502102628 6 360 11.3 14.5 0.00 0.00 0.00 38 1019.3
20260502101617 5 5 8.0 12.9 0.00 0.00 0.00 41 1019.4
20260502100645 5 360 9.7 9.7 0.00 0.00 0.00 41 1019.4
20260502090625 5 5 8.0 9.7 0.00 0.00 0.00 41 1019.6
20260502070623 4 355 9.7 16.1 0.00 0.00 0.00 39 1019.8
20260502065627 5 355 12.9 16.1 0.00 0.00 0.00 37 1019.8
20260502064612 6 355 12.9 16.1 0.00 0.00 0.00 37 1019.7
20260502063618 6 355 12.9 16.1 0.00 0.00 0.00 36 1019.7
20260502062623 5 349 9.7 14.5 0.00 0.00 0.00 38 1019.7
20260502060613 5 355 12.9 16.1 0.00 0.00 0.00 37 1019.8
20260502055613 5 355 12.9 14.5 0.00 0.00 0.00 37 1019.8
20260502054639 5 355 11.3 14.5 0.00 0.00 0.00 39 1019.8
20260502053626 4 360 12.9 14.5 0.00 0.00 0.00 40 1019.8
20260502052639 5 360 12.9 14.5 0.00 0.00 0.00 37 1019.8
20260502051627 5 360 8.0 12.9 0.00 0.00 0.00 36 1019.8
20260502050635 5 360 9.7 14.5 0.00 0.00 0.00 37 1019.8
20260502045631 5 360 11.3 14.5 0.00 0.00 0.00 38 1019.8
20260502044622 5 355 9.7 14.5 0.00 0.00 0.00 37 1019.9
20260502043630 5 360 8.0 14.5 0.00 0.00 0.00 36 1019.9
20260502042615 4 360 12.9 14.5 0.00 0.00 0.00 37 1019.9
20260502041624 5 5 8.0 14.5 0.00 0.00 0.00 36 1019.9
20260502040638 5 360 11.3 16.1 0.00 0.00 0.00 38 1019.7
20260502035620 6 360 9.7 12.9 0.00 0.00 0.00 35 1019.6
20260502034627 6 360 9.7 12.9 0.00 0.00 0.00 34 1019.5
20260502033634 6 5 11.3 14.5 0.00 0.00 0.00 36 1019.5
20260502032624 7 360 8.0 9.7 0.00 0.00 0.00 32 1019.4
20260502031612 7 12 6.4 8.0 0.00 0.00 0.00 31 1019.3
20260502030616 8 16 6.4 9.7 0.00 0.00 0.00 30 1019.0
20260502025653 7 12 8.0 9.7 0.00 0.00 0.00 32 1018.9
20260502024619 10 355 6.4 9.7 0.00 0.00 0.00 28 1018.7
20260502023631 12 43 6.4 8.0 0.00 0.00 0.00 23 1018.6
20260502022618 13 117 3.2 6.4 0.00 0.00 0.00 21 1018.4
20260502021644 14 119 4.8 6.4 0.00 0.00 0.00 20 1018.4
20260502020630 15 119 3.2 4.8 0.00 0.00 0.00 20 1018.3
20260502015615 15 119 4.8 9.7 0.00 0.00 0.00 19 1018.3
20260502014623 16 122 4.8 9.7 0.00 0.00 0.00 18 1018.2
20260502013627 16 122 4.8 11.3 0.00 0.00 0.00 19 1018.2
20260502012653 16 142 8.0 14.5 0.00 0.00 0.00 18 1018.2
20260502011621 16 124 9.7 14.5 0.00 0.00 0.00 18 1018.1
20260502010628 17 128 8.0 14.5 0.00 0.00 0.00 18 1018.1
20260502005628 17 113 6.4 16.1 0.00 0.00 0.00 18 1018.0
20260502004632 17 134 9.7 17.7 0.00 0.00 0.00 17 1017.9
20260502003642 17 128 4.8 19.3 0.00 0.00 0.00 17 1017.8
20260502002628 17 86 6.4 14.5 0.00 0.00 0.00 17 1017.8
20260502001617 17 146 8.0 12.9 0.00 0.00 0.00 17 1018.2
20260502000627 17 72 8.0 14.5 0.00 0.00 0.00 18 1018.2
20260501235623 17 113 3.2 12.9 0.00 0.00 0.00 17 1018.2
20260501234614 17 138 14.5 20.9 0.00 0.00 0.00 17 1018.3
20260501233642 17 128 11.3 20.9 0.00 0.00 0.00 17 1018.3
20260501232649 17 223 14.5 19.3 0.00 0.00 0.00 17 1018.3
20260501231635 17 147 12.9 20.9 0.00 0.00 0.00 18 1018.4
20260501230625 17 355 4.8 17.7 0.00 0.00 0.00 17 1018.4
20260501225620 17 184 4.8 12.9 0.00 0.00 0.00 17 1018.4